Location: Unnamed
(48.6007°N, 2.4808°E)
Time: 20:19:20
(UTC+02:00)

DX 1 - Pass Details

Date: 07 April 2023
Orbit: 615 x 625 km, 98.4° (Epoch: 04 June)

Event Time Altitude Azimuth Distance (km) Brightness Sun altitude
Rises 00:55:40 0° 8° (N) 2,899 ? -33.4°
Reaches altitude 10° 00:57:57 10° 1° (N) 1,990 ? -33.5°
Enters shadow 00:59:55 24° 346° (NNW) 1,282 ? -33.6°
